Location: Kott?ru
(16.6209°N, 80.6208°E)
Time: 15:43:17
(UTC+00:00)

Oscar 19 - Visible Passes

Search period start: 31 May 2023 00:00
Search period end: 10 June 2023 00:00
Orbit: 773 x 788 km, 98.8° (Epoch: 30 May)

Date Brightness Start Highest point End Pass type
(mag) Time Alt. Az. Time Alt. Az. Time Alt. Az.
31 May 11.0 22:23:57 10° NNE 22:29:00 60° ESE 22:32:55 17° S visible
01 Jun 12.5 21:52:39 10° NE 21:56:48 25° E 22:00:19 13° SSE visible
01 Jun 11.9 23:31:55 10° NNW 23:35:49 22° WNW 23:39:42 10° WSW visible
02 Jun 10.8 22:58:49 10° N 23:03:47 53° WNW 23:08:15 13° SSW visible
03 Jun 10.9 22:26:35 10° NNE 22:31:40 64° ESE 22:35:38 17° S visible
04 Jun 12.4 21:55:13 10° NE 21:59:28 26° E 22:03:02 13° SSE visible
04 Jun 12.0 23:34:41 10° NNW 23:38:27 21° WNW 23:42:12 10° WSW visible
05 Jun 13.4 21:26:30 10° E 21:27:12 10° E 21:27:53 10° ESE visible
05 Jun 10.9 23:01:30 10° N 23:06:26 49° WNW 23:10:57 12° SSW visible
06 Jun 10.9 22:29:13 10° NNE 22:34:19 68° ESE 22:38:20 16° S visible
07 Jun 12.3 21:57:46 10° NE 22:02:07 28° E 22:05:43 13° SSE visible
07 Jun 12.1 23:37:28 10° NNW 23:41:05 20° WNW 23:44:42 10° WSW visible
08 Jun 13.3 21:28:26 10° E 21:29:51 11° E 21:31:15 10° ESE visible
08 Jun 11.0 23:04:11 10° N 23:09:04 46° WNW 23:13:39 12° SSW visible
09 Jun 10.8 22:31:51 10° NNE 22:36:57 73° ESE 22:41:01 16° S visible
